Location: Newcastle
(43.9170°N, 78.5830°W)
Time: 06:25:14
(UTC-04:00)

Daily predictions for brighter satellites

Satellite Brightness Start Highest point End
(mag) Time Altitude Azimuth Time Altitude Azimuth Time Altitude Azimuth
Cosmos 1328 Rocket 4.2 20:54:54 10° NNW 20:59:15 61° W 21:03:36 10° S
CZ-4 R/B 4.4 20:58:24 10° WSW 21:00:21 13° W 21:02:20 10° WNW
IRS-1A Rocket 4.4 20:56:22 10° SSE 21:02:00 85° WSW 21:07:47 10° NNW
BREEZE-M DEB (TANK) 1.7 21:02:36 10° WSW 21:04:52 80° NNW 21:08:42 10° ENE
BREEZE-M DEB (TANK) 2.4 21:00:42 10° WNW 21:07:47 80° SSW 21:10:37 10° ESE
COSMOS 2406 3.6 21:04:51 10° S 21:10:11 41° ESE 21:15:32 10° NE
BREEZE-M DEB (TANK) 4.4 21:02:23 10° WNW 21:10:38 33° WSW 21:13:44 10° S
Cosmos 1805 Rocket 4.3 21:07:05 10° SSE 21:11:02 33° E 21:15:02 10° NNE
SL-08 RB Rocket 4.3 21:08:53 10° S 21:13:25 62° W 21:18:03 10° NNW
Cosmos 614 Rocket 4.4 21:17:50 10° S 21:22:37 41° ESE 21:27:29 10° NE
Meteor 2-6 Rocket 4.2 21:18:10 10° N 21:23:39 67° ENE 21:29:14 10° SSE
Cosmos 2218 Rocket 4.3 21:19:10 10° SSW 21:25:19 71° W 21:31:29 10° N
Cosmos 2228 Rocket 3.0 21:21:38 10° N 21:26:06 79° E 21:30:29 10° SSE
Cosmos 1782 3.3 21:22:36 10° NNW 21:26:34 62° W 21:30:32 10° S
Cosmos 2082 Rocket 3.3 21:23:34 10° SSE 21:27:56 23° ESE 21:32:19 10° NE
Meteor 1-4 Rocket 4.4 21:28:37 10° NNE 21:30:47 15° ENE 21:32:08 13° E
Cosmos 1633 Rocket 4.3 21:30:40 14° SE 21:33:17 23° E 21:36:48 10° NE
Cosmos 1900 4.4 21:30:01 10° SSW 21:34:56 88° WNW 21:40:00 10° NNE
Resurs 01 Rocket 1.6 21:34:15 11° SSE 21:38:28 69° ENE 21:42:54 10° N
SL-4 R/B 2.5 21:34:51 10° SSW 21:38:30 34° SE 21:41:55 10° ENE
Cosmos 1818 4.0 21:36:02 10° NNW 21:41:22 52° NE 21:45:21 18° ESE
IRIDIUM 106 4.3 21:37:00 10° S 21:42:12 78° E 21:47:25 10° N
Cosmos 1707 Rocket 4.0 21:40:11 10° N 21:44:20 42° ENE 21:47:04 19° SE
Meteor 1-10 Rocket 4.2 21:39:36 10° N 21:45:17 84° ENE 21:51:03 10° S
Meteor 1-27 Rocket 4.1 21:39:38 10° N 21:45:25 54° ENE 21:50:03 16° SSE
NOSS 3-2 (A) 4.4 21:46:04 17° SE 21:48:28 22° ESE 21:52:58 10° ENE
CZ-2C R/B 3.5 21:43:31 10° N 21:48:31 51° WNW 21:53:31 10° SW
Lacrosse 5 4.0 21:45:59 10° NW 21:49:44 20° NNE 21:53:30 10° ENE
Cosmos 220 Rocket 3.9 21:45:42 10° NNW 21:49:53 67° ENE 21:52:38 21° SSE
Spot 2 Rocket 3.9 21:49:15 19° SE 21:52:41 47° ENE 21:57:35 10° N
USA 267 3.3 21:48:08 10° NE 21:54:43 87° NW 22:01:16 10° SW
MetOp-B 4.2 21:50:44 16° SSE 21:54:57 67° ENE 22:00:17 10° N
CZ-2C R/B 4.2 21:51:42 10° N 21:56:17 62° WNW 22:00:45 10° SSW
Cosmos 1812 2.7 21:53:48 10° N 21:57:40 86° W 22:00:28 18° S
Cosmos 1190 Rocket 4.2 21:53:09 10° S 21:58:13 51° ESE 22:03:21 10° NNE
Shenzhou-11 Module 1.2 21:56:02 10° W 21:58:22 64° S 21:58:36 58° SE
GP-B 3.7 21:55:12 10° NNE 21:59:21 37° E 22:01:14 25° SE
Cosmos 407 Rocket 3.5 21:56:37 10° S 22:01:54 68° ESE 22:07:11 10° NNE
IGS 5A 3.7 22:00:02 25° SE 22:02:11 53° ENE 22:06:14 10° N
Intercosmos 25 3.3 21:58:50 10° N 22:03:20 81° W 22:05:31 21° S
Cosmos 1980 Rocket 2.9 21:59:17 10° NNW 22:04:37 39° ENE 22:07:40 22° ESE
OE (NEXTSAT) 4.2 22:01:45 10° WNW 22:05:15 81° SSW 22:06:35 35° ESE
SWAS 4.4 22:03:53 10° SSW 22:08:07 64° ESE 22:12:26 10° NNE
BREEZE-M DEB (TANK) 3.9 22:05:43 10° WNW 22:08:13 25° N 22:09:35 13° NE
Cosmos 389 Rocket 3.3 22:06:04 10° NNW 22:09:24 47° W 22:11:47 17° SSW
Cosmos 1862 Rocket 4.2 22:06:31 10° N 22:10:45 40° ENE 22:12:17 30° ESE
Cosmos 1441 Rocket 3.8 22:08:18 10° SSW 22:12:03 55° WNW 22:15:46 10° N
Cosmos 921 Rocket 4.4 22:08:53 10° N 22:12:15 22° ENE 22:13:22 20° E
Cosmos 1934 Rocket 4.0 22:07:18 13° S 22:13:04 66° E 22:19:23 10° NNE
Terra 3.1 22:13:21 22° E 22:14:56 26° ENE 22:18:52 10° N
SPOT 1/Viking Rocket 3.6 22:12:53 26° SE 22:15:45 63° ENE 22:20:55 10° N
ATLAS 5 CENTAUR R/B 2.8 22:10:04 10° NW 22:15:48 59° WSW 22:20:15 21° SSE
Sich 1 3.4 22:12:46 10° SSW 22:17:09 65° W 22:21:35 10° N
Cosmos 1238 Rocket 3.9 22:20:36 20° ENE 22:20:36 20° ENE 22:22:05 10° NE
Cosmos 1833 Rocket 2.7 22:14:23 10° SSW 22:20:00 81° WNW 22:25:40 10° NNE
Cosmos 1697 Rocket 2.6 22:15:13 10° NNW 22:20:52 89° WSW 22:23:55 28° SSE
Cosmos 1821 Rocket 4.4 22:19:00 10° SSW 22:25:02 62° W 22:31:12 10° N
SPOT 5 3.2 22:24:21 33° ESE 22:25:29 40° ENE 22:29:33 10° N
deb Kosmos-1763 4.0 22:26:02 51° SSE 22:26:35 59° ESE 22:30:10 10° NNE
USA 234 3.3 22:25:18 26° ESE 22:29:15 80° NE 22:35:48 10° NW
Cosmos 1140 Rocket 3.4 22:24:29 10° SSW 22:29:44 90° NW 22:35:01 10° NNE
SL-8 R/B 4.1 22:25:08 10° WNW 22:29:47 49° SW 22:31:18 35° SSE
USA 32 4.0 22:27:34 30° SSE 22:30:04 63° E 22:35:14 10° NNE
CARTOSAT-1 3.7 22:31:46 42° SE 22:32:54 57° ENE 22:37:09 10° N
FALCON 9 DEB 3.0 22:29:32 10° SW 22:32:58 68° SE 22:32:58 68° SE
Aureole 1 Rocket 4.2 22:28:47 10° S 22:35:14 76° ESE 22:43:19 10° NNE
Meteor 1-25 Rocket 4.3 22:33:03 32° SSE 22:35:26 57° E 22:40:55 10° NNE
Meteor 2-20 Rocket 4.4 22:29:43 10° N 22:35:55 81° E 22:39:08 30° SSE
Cosmos 1933 Rocket 4.0 22:36:00 40° ESE 22:36:21 41° E 22:40:31 10° NNE
Cosmos 1666 Rocket 4.0 22:33:26 16° SSW 22:36:48 59° W 22:41:06 10° N
Cosmos 1867 3.5 22:32:40 10° SSW 22:38:02 66° ESE 22:43:27 10° NE
USA 238 DEB 3.7 22:36:56 10° SSW 22:43:19 56° ESE 22:49:59 10° NE
USA 238 3.7 22:37:03 10° SSW 22:43:26 55° ESE 22:50:05 10° NE
Cosmos 2360 4.2 22:39:14 10° NNW 22:44:59 77° WSW 22:47:21 37° SSE
Cosmos 2123 Rocket 4.1 22:41:14 10° NNW 22:47:25 72° W 22:51:04 26° S
SAR-Lupe-2 3.4 22:46:36 10° NNE 22:50:05 77° ENE 22:50:05 77° ENE
Cosmos 2242 Rocket 3.6 22:50:23 10° N 22:54:46 57° E 22:55:07 55° E
Cosmos 676 Rocket 4.0 22:51:59 22° SSW 22:55:30 85° WNW 23:00:53 10° NNE
Cosmos 1703 Rocket 4.0 22:54:07 10° N 22:58:18 44° ENE 22:58:19 44° ENE
Cosmos 1605 Rocket 3.9 22:54:53 28° S 22:58:19 87° W 23:04:27 10° N
Okean 1 3.4 22:55:17 10° N 22:59:12 59° ENE 22:59:12 59° ENE
SL-16 R/B 3.2 22:57:10 10° N 23:02:21 35° NE 23:03:57 29° E
Cosmos 1602 3.7 23:04:49 72° NE 23:04:49 72° NE 23:08:28 10° N
Meteor 1-4 Rocket 3.9 23:02:50 10° NNW 23:05:55 30° W 23:06:20 29° WSW
Cosmos 1437 Rocket 3.5 23:03:06 10° N 23:06:09 40° NE 23:06:09 40° NE
Cosmos 2173 Rocket 4.3 23:10:41 42° ESE 23:11:31 45° E 23:17:19 10° NNE
Cosmos 2082 Rocket 2.9 23:06:02 10° SW 23:11:36 55° WNW 23:17:12 10° NNE
Cosmos 192 4.4 23:08:25 10° NNW 23:13:18 68° WSW 23:14:06 57° SSW
CENTAUR R/B 2.5 23:13:55 51° SE 23:14:30 53° ESE 23:21:07 10° NE
Resurs 01 Rocket 4.3 23:13:48 10° WSW 23:15:26 12° W 23:17:05 10° WNW
Cosmos 2278 4.1 23:10:31 10° NNW 23:16:05 55° WSW 23:17:39 42° SSW
ERS-1 Rocket 3.4 23:16:08 41° SSW 23:17:28 53° W 23:22:24 10° NNW
SL-4 R/B 2.7 23:14:17 10° W 23:18:02 47° NNW 23:19:22 31° NNE
Cosmos 841 Rocket 4.5 23:15:51 10° N 23:20:34 33° ENE 23:21:13 32° ENE
Cosmos 405 Rocket 3.2 23:23:05 54° NW 23:23:05 54° NW 23:26:24 10° N
Okean 1-7 3.1 23:19:04 10° N 23:23:05 70° NE 23:23:05 70° NE
Cosmos 468 Rocket 3.9 23:18:25 10° NNW 23:23:45 73° ENE 23:24:19 66° ESE
Cosmos 540 Rocket 4.4 23:20:17 10° N 23:25:00 34° ENE 23:25:30 33° ENE
Cosmos 1741 Rocket 3.9 23:25:03 65° ESE 23:25:03 65° ESE 23:30:17 10° NNE
Cosmos 2322 Rocket 2.9 23:19:58 10° NNW 23:25:22 42° ENE 23:26:26 38° E
Genesis I 4.0 23:23:59 10° NW 23:27:02 45° WNW 23:27:02 45° WNW
Cosmos 2016 Rocket 4.5 23:29:06 42° E 23:29:33 42° E 23:35:28 10° NNE
Lacrosse 5 2.6 23:28:54 10° NW 23:33:48 46° NNE 23:34:47 41° ENE
Cosmos 1459 Rocket 3.9 23:33:07 59° SE 23:34:04 67° E 23:40:22 10° NNE
Meteor 1-19 Rocket 4.2 23:32:23 10° NNW 23:37:45 68° W 23:38:32 59° SW
NOSS 3-2 (A) 3.7 23:33:14 12° SW 23:38:32 66° NW 23:45:01 10° NNE
Cosmos 2360 Rocket 3.4 23:35:04 10° N 23:40:06 31° NE 23:41:15 29° ENE
ATLAS 5 CENTAUR R/B 3.2 23:39:42 10° NNW 23:42:37 39° NE 23:43:14 37° ENE
Meteor 1-14 Rocket 4.5 23:41:34 47° SW 23:43:11 68° WNW 23:49:07 10° N
NOSS 3-2 (C) 3.2 23:42:27 55° SSW 23:43:49 88° SE 23:50:19 10° NE
Cosmos 1802 Rocket 4.0 23:45:47 62° SE 23:46:33 68° E 23:52:53 10° NNE
Cosmos 1980 Rocket 3.2 23:43:29 10° NW 23:48:31 33° WSW 23:49:26 31° WSW
Cosmos 921 Rocket 4.3 23:46:48 10° NW 23:50:09 32° W 23:50:09 32° W
Terra 2.8 23:52:15 37° WSW 23:52:30 37° W 23:56:56 10° NNW
